Tracking 31027 objects as of 19-Jul-2025
HD Live streaming from Space Station
objects crossing your sky now

SHIYAN 10 02 (SY-10 02)

Track SHIYAN 10 02 (SY-10 02) now!


NORAD ID: 54878
Int'l Code: 2022-178A
Perigee: 1,585.2 km
Apogee: 38,774.6 km
Inclination: 64.0 °
Period: 717.6 minutes
Semi major axis: 26550 km
RCS: Unknown
Launch date: December 29, 2022
Source: People's Republic of China (PRC)
Launch site: Xichang Space Center, China (XSC)
Your satellite tracking list
KORSAT 7
Track 1 satellite(s)




NASA's NSSDC Master Catalog

Two Line Element Set (TLE):
1 54878U 22178A   25190.20207339  .00000820  00000-0  00000-0 0  9995
2 54878  64.0043   1.4640 7003421 268.7627  17.3688  2.00671039  9674
Source of the keplerian elements: AFSPC